Location: Beaver Brook Trail
(44.0290°N, 71.8137°W)
Time: 03:05:38
(UTC+00:00)

SR - Pass Details

Date: 20 November 2024
Orbit: 573 x 858 km, 66.7° (Epoch: 03 December)

Event Time Altitude Azimuth Distance (km) Brightness Sun altitude
Exits shadow 09:17:05 18° 0° (N) 1,809 ? -27.1°
Maximum altitude 09:19:57 29° 47° (NE) 1,427 ? -26.6°
Drops below altitude 10° 09:24:44 10° 106° (ESE) 2,415 ? -25.7°
Sets 09:27:34 0° 117° (ESE) 3,377 ? -25.2°
